Weather History for KHDN - January, 2014

Change the Weather History Date:

Monday, January 20, 2014

  Actual Average Record
Temperature  
Mean Temperature 18 °F -  
Max Temperature 28 °F 31 °F 50 °F (1950)
Min Temperature 8 °F 7 °F -25 °F (1984)
Degree Days  
Heating Degree Days 47    
Moisture  
Dew Point 10 °F    
Average Humidity 73    
Maximum Humidity 85    
Minimum Humidity 55    
Precipitation  
Precipitation 0.00 in - - ()
Sea Level Pressure  
Sea Level Pressure 30.38 in    
Wind  
Wind Speed 6 mph (ESE)    
Max Wind Speed 15 mph    
Max Gust Speed -    
Visibility 10 miles    
Events      
Averages and records for this station are not official NWS values.
T = Trace of Precipitation, MM = Missing Value Source: NWS Daily Summary

Daily Weather History Graph

Daily Weather History Graph

Search for Another Location

Airport or City:

Trip Planner

Search our weather history database for the weather conditions in past years. The results will help you decide how hot, cold, wet, or windy it might be!

Date:

Astronomy

Jan. 20, 2014 Rise Set
Actual Time 7:27 AM MST 5:12 PM MST
Civil Twilight 6:57 AM MST 5:42 PM MST
Nautical Twilight 6:24 AM MST 6:15 PM MST
Astronomical Twilight 5:52 AM MST 6:48 PM MST
Moon 9:51 PM MST (1/20) 9:27 AM MST (1/20)
Length of Visible Light 10h 44m
Length of Day
9h 45m
Waning Gibbous, 82% of the Moon is Illuminated
Jan 20
Waning Gibbous
Jan 23
Last Quarter
Jan 30
New
Feb 6
First Quarter
Feb 14
Full

Hourly Weather History & Observations

Time (MST) Temp. Windchill Dew Point Humidity Pressure Visibility Wind Dir Wind Speed Gust Speed Precip Events Conditions
12:15 AM 10.4 °F 0.8 °F 5.0 °F 79% 30.22 in 10.0 mi SSE 5.8 mph - N/A   Clear
12:35 AM 12.2 °F 2.9 °F 6.8 °F 79% 30.23 in 10.0 mi SE 5.8 mph - N/A   Clear
12:55 AM 14.0 °F 6.5 °F 8.6 °F 79% 30.23 in 10.0 mi East 4.6 mph - N/A   Clear
1:15 AM 12.2 °F 4.3 °F 6.8 °F 79% 30.24 in 10.0 mi ESE 4.6 mph - N/A   Clear
1:35 AM 12.2 °F - 6.8 °F 79% 30.24 in 10.0 mi Calm Calm - N/A   Clear
1:55 AM 12.2 °F 2.9 °F 6.8 °F 79% 30.23 in 10.0 mi East 5.8 mph - N/A   Clear
2:15 AM 12.2 °F 0.7 °F 6.8 °F 79% 30.24 in 10.0 mi ESE 8.1 mph - N/A   Clear
2:35 AM 12.2 °F 0.7 °F 6.8 °F 79% 30.24 in 10.0 mi ESE 8.1 mph - N/A   Clear
2:55 AM 12.2 °F -1.8 °F 8.6 °F 85% 30.24 in 10.0 mi East 11.5 mph - N/A   Clear
3:15 AM 14.0 °F 1.2 °F 8.6 °F 79% 30.25 in 10.0 mi East 10.4 mph - N/A   Clear
3:35 AM 14.0 °F 3.9 °F 6.8 °F 73% 30.25 in 10.0 mi SE 6.9 mph - N/A   Clear
3:55 AM 12.2 °F - 6.8 °F 79% 30.25 in 10.0 mi Calm Calm - N/A   Clear
4:15 AM 14.0 °F 1.2 °F 8.6 °F 79% 30.26 in 10.0 mi East 10.4 mph - N/A   Clear
4:35 AM 14.0 °F -0.2 °F 6.8 °F 73% 30.26 in 10.0 mi ESE 12.7 mph - N/A   Clear
4:55 AM 15.8 °F 5.1 °F 8.6 °F 73% 30.26 in 10.0 mi SE 8.1 mph - N/A   Clear
5:15 AM 8.6 °F 0.1 °F 1.4 °F 73% 30.26 in 10.0 mi NNE 4.6 mph - N/A   Clear
5:35 AM 12.2 °F -1.0 °F 6.8 °F 79% 30.27 in 10.0 mi East 10.4 mph - N/A   Clear
5:55 AM 12.2 °F -3.7 °F 6.8 °F 79% 30.28 in 10.0 mi East 15.0 mph - N/A   Clear
6:15 AM 15.8 °F 2.7 °F 8.6 °F 73% 30.28 in 10.0 mi ESE 11.5 mph - N/A   Scattered Clouds
6:35 AM 12.2 °F 1.7 °F 6.8 °F 79% 30.29 in 10.0 mi ENE 6.9 mph - N/A   Partly Cloudy
6:55 AM 12.2 °F 1.7 °F 8.6 °F 85% 30.30 in 10.0 mi East 6.9 mph - N/A   Clear
7:15 AM 10.4 °F -2.4 °F 6.8 °F 85% 30.30 in 10.0 mi East 9.2 mph - N/A   Partly Cloudy
7:35 AM 14.0 °F 3.9 °F 8.6 °F 79% 30.31 in 10.0 mi East 6.9 mph - N/A   Partly Cloudy
7:55 AM 15.8 °F 2.1 °F 10.4 °F 79% 30.32 in 10.0 mi ESE 12.7 mph - N/A   Partly Cloudy
8:15 AM 14.0 °F 2.0 °F 8.6 °F 79% 30.33 in 10.0 mi East 9.2 mph - N/A   Clear
8:35 AM 15.8 °F 3.4 °F 8.6 °F 73% 30.33 in 10.0 mi East 10.4 mph - N/A   Clear
8:55 AM 15.8 °F 7.2 °F 8.6 °F 73% 30.35 in 10.0 mi SE 5.8 mph - N/A   Clear
9:15 AM 12.2 °F 2.9 °F 6.8 °F 79% 30.38 in 10.0 mi South 5.8 mph - N/A   Scattered Clouds
9:35 AM 15.8 °F - 8.6 °F 73% 30.38 in 10.0 mi Calm Calm - N/A   Mostly Cloudy
9:55 AM 14.0 °F - 8.6 °F 79% 30.39 in 10.0 mi Calm Calm - N/A   Partly Cloudy
10:15 AM 14.0 °F 6.5 °F 6.8 °F 73% 30.41 in 10.0 mi NE 4.6 mph - N/A   Clear
10:35 AM 17.6 °F 10.7 °F 10.4 °F 73% 30.41 in 10.0 mi East 4.6 mph - N/A   Clear
10:55 AM 17.6 °F 8.2 °F 10.4 °F 73% 30.42 in 10.0 mi East 6.9 mph - N/A   Clear
11:15 AM 21.2 °F 14.9 °F 12.2 °F 68% 30.42 in 10.0 mi ESE 4.6 mph - N/A   Clear
11:35 AM 23.0 °F 18.4 °F 12.2 °F 63% 30.42 in 10.0 mi ENE 3.5 mph - N/A   Clear
11:55 AM 21.2 °F - 12.2 °F 68% 30.41 in 10.0 mi Calm Calm - N/A   Clear
12:15 PM 19.4 °F 12.8 °F 12.2 °F 74% 30.41 in 10.0 mi South 4.6 mph - N/A   Clear
12:35 PM 21.2 °F - 12.2 °F 68% 30.41 in 10.0 mi Calm Calm - N/A   Clear
12:55 PM 24.8 °F - 15.8 °F 69% 30.41 in 10.0 mi Calm Calm - N/A   Clear
1:15 PM 24.8 °F - 12.2 °F 59% 30.41 in 10.0 mi Calm Calm - N/A   Clear
1:35 PM 21.2 °F 12.6 °F 12.2 °F 68% 30.40 in 10.0 mi South 6.9 mph - N/A   Clear
1:55 PM 21.2 °F 16.4 °F 12.2 °F 68% 30.41 in 10.0 mi SSW 3.5 mph - N/A   Clear
2:15 PM 24.8 °F 20.5 °F 15.8 °F 69% 30.42 in 10.0 mi West 3.5 mph - N/A   Clear
2:35 PM 26.6 °F 22.6 °F 14.0 °F 59% 30.42 in 10.0 mi WSW 3.5 mph - N/A   Clear
2:55 PM 26.6 °F - 15.8 °F 64% 30.43 in 10.0 mi Calm Calm - N/A   Clear
3:15 PM 26.6 °F 22.6 °F 15.8 °F 64% 30.44 in 10.0 mi NE 3.5 mph - N/A   Clear
3:35 PM 26.6 °F - 15.8 °F 64% 30.45 in 10.0 mi Calm Calm - N/A   Clear
3:55 PM 26.6 °F 22.6 °F 12.2 °F 55% 30.46 in 10.0 mi East 3.5 mph - N/A   Clear
4:15 PM 28.4 °F - 15.8 °F 59% 30.46 in 10.0 mi Calm Calm - N/A   Clear
4:35 PM 24.8 °F - 14.0 °F 64% 30.46 in 10.0 mi Calm Calm - N/A   Clear
4:55 PM 24.8 °F - 14.0 °F 64% 30.47 in 10.0 mi Calm Calm - N/A   Clear
5:15 PM 24.8 °F 19.1 °F 14.0 °F 64% 30.47 in 10.0 mi ENE 4.6 mph - N/A   Clear
5:35 PM 24.8 °F - 14.0 °F 64% 30.47 in 10.0 mi Calm Calm - N/A   Clear
5:55 PM 21.2 °F 14.9 °F 12.2 °F 68% 30.47 in 10.0 mi ESE 4.6 mph - N/A   Clear
6:15 PM 23.0 °F - 12.2 °F 63% 30.47 in 10.0 mi Calm Calm - N/A   Clear
6:35 PM 23.0 °F 18.4 °F 12.2 °F 63% 30.47 in 10.0 mi NE 3.5 mph - N/A   Clear
6:55 PM 19.4 °F - 10.4 °F 68% 30.47 in 10.0 mi Calm Calm - N/A   Clear
7:15 PM 19.4 °F - 10.4 °F 68% 30.47 in 10.0 mi Calm Calm - N/A   Clear
7:35 PM 19.4 °F - 12.2 °F 74% 30.48 in 10.0 mi Calm Calm - N/A   Clear
7:55 PM 15.8 °F 8.6 °F 8.6 °F 73% 30.48 in 10.0 mi SSE 4.6 mph - N/A   Clear
8:15 PM 15.8 °F - 10.4 °F 79% 30.48 in 10.0 mi Calm Calm - N/A   Clear
8:55 PM 19.4 °F 8.6 °F 10.4 °F 68% 30.50 in 10.0 mi East 9.2 mph - N/A   Clear
9:15 PM 15.8 °F 6.1 °F 6.8 °F 68% 30.50 in 10.0 mi East 6.9 mph - N/A   Clear
9:35 PM 12.2 °F 2.9 °F 6.8 °F 79% 30.51 in 10.0 mi SSE 5.8 mph - N/A   Clear
9:55 PM 12.2 °F 6.1 °F 8.6 °F 85% 30.50 in 10.0 mi SSE 3.5 mph - N/A   Clear
10:15 PM 12.2 °F - 6.8 °F 79% 30.51 in 10.0 mi Calm Calm - N/A   Clear
10:35 PM 12.2 °F -1.0 °F 6.8 °F 79% 30.52 in 10.0 mi East 10.4 mph - N/A   Clear
10:55 PM 12.2 °F -2.5 °F 6.8 °F 79% 30.52 in 10.0 mi ESE 12.7 mph - N/A   Clear
11:15 PM 12.2 °F -3.1 °F 6.8 °F 79% 30.52 in 10.0 mi ESE 13.8 mph - N/A   Clear
11:35 PM 12.2 °F -1.8 °F 6.8 °F 79% 30.52 in 10.0 mi East 11.5 mph - N/A   Clear
11:55 PM 15.8 °F 2.7 °F 8.6 °F 73% 30.51 in 10.0 mi East 11.5 mph - N/A   Clear